Location: Kampong Paya Jaras Dalam
(3.1833°N, 101.5500°E)
Time: 05:29:08
(UTC+00:00)

SJ 16-02 - Pass Details

Date: 15 May 2026
Orbit: 582 x 592 km, 75.0° (Epoch: 7 June)

Event Time Altitude Azimuth Distance (km) Brightness Sun altitude
Rises 13:13:32 0° 314° (NW) 2,793 5.8 -27.8°
Reaches altitude 10° 13:16:57 10° 284° (WNW) 1,898 4.8 -28.6°
Maximum altitude 13:18:44 12° 259° (W) 1,746 4.3 -29.0°
Drops below altitude 10° 13:20:31 10° 234° (SW) 1,904 4.2 -29.4°
Enters shadow 13:22:00 - 218° (SW) 2,226 4.4 -29.7°
